Helena, Arkansas, United States (72342)
Lat: 34.53N, Lon: 90.59W
Wx Zone: ARZ058
Local Info
Past Weather Observations for Thursday, April 28, 2016

NOTE: This archive is for the closest National Weather Service station to Helena. Information may differ from the station used for current weather conditions.

Click here for Long-term Archive

Time Weather Temperature Dewpoint Humidity Pressure Winds Precip Visibility
23:55
Clear
61°F / 16°C 55°F / 13°C 83% 29.95 in
(1014 mb)
NE 3.5 mph
(NE 6 kph)
- 10SM
23:35
Clear
63°F / 17°C 55°F / 13°C 77% 29.95 in
(1014 mb)
Calm - 10SM
23:15
Clear
63°F / 17°C 55°F / 13°C 77% 29.95 in
(1014 mb)
Calm - 10SM
22:55
Clear
64°F / 18°C 55°F / 13°C 73% 29.98 in
(1015 mb)
Calm - 10SM
22:35
Clear
64°F / 18°C 55°F / 13°C 73% 29.98 in
(1015 mb)
Calm - 10SM
22:15
Clear
63°F / 17°C 55°F / 13°C 77% 29.98 in
(1015 mb)
N 3.5 mph
(N 6 kph)
- 10SM
21:55
Clear
64°F / 18°C 57°F / 14°C 78% 29.98 in
(1015 mb)
NNE 4.6 mph
(NNE 7 kph)
- 10SM
21:35
Clear
64°F / 18°C 57°F / 14°C 78% 29.98 in
(1015 mb)
NNE 3.5 mph
(NNE 6 kph)
- 10SM
21:15
Clear
66°F / 19°C 55°F / 13°C 68% 29.98 in
(1015 mb)
NE 3.5 mph
(NE 6 kph)
- 10SM
20:55
Clear
68°F / 20°C 55°F / 13°C 64% 29.98 in
(1015 mb)
Calm - 10SM
20:35
Clear
70°F / 21°C 55°F / 13°C 60% 29.98 in
(1015 mb)
Calm - 10SM
20:15
Clear
70°F / 21°C 54°F / 12°C 57% 29.98 in
(1015 mb)
Calm - 10SM
19:55
Clear
70°F / 21°C 55°F / 13°C 60% 29.95 in
(1014 mb)
ENE 3.5 mph
(ENE 6 kph)
- 10SM
19:35
Clear
72°F / 22°C 55°F / 13°C 57% 29.95 in
(1014 mb)
ENE 3.5 mph
(ENE 6 kph)
- 10SM
19:15
Clear
72°F / 22°C 55°F / 13°C 57% 29.95 in
(1014 mb)
ENE 4.6 mph
(ENE 7 kph)
- 10SM
18:55
Clear
73°F / 23°C 54°F / 12°C 50% 29.95 in
(1014 mb)
ENE 5.8 mph
(ENE 9 kph)
- 10SM
18:35
Clear
77°F / 25°C 54°F / 12°C 44% 29.95 in
(1014 mb)
E 5.8 mph
(E 9 kph)
- 10SM
18:15
Clear
79°F / 26°C 52°F / 11°C 39% 29.95 in
(1014 mb)
E 5.8 mph
(E 9 kph)
- 10SM
17:55
Clear
81°F / 27°C 46°F / 8°C 30% 29.95 in
(1014 mb)
Calm - 10SM
17:35
Clear
81°F / 27°C 50°F / 10°C 34% 29.95 in
(1014 mb)
Calm - 10SM
17:15
Clear
81°F / 27°C 50°F / 10°C 34% 29.95 in
(1014 mb)
Calm - 10SM
16:55
Clear
81°F / 27°C 50°F / 10°C 34% 29.95 in
(1014 mb)
Calm - 10SM
16:35
Clear
82°F / 28°C 50°F / 10°C 32% 29.95 in
(1014 mb)
Calm - 10SM
16:15
Clear
81°F / 27°C 52°F / 11°C 37% 29.92 in
(1013 mb)
Calm - 10SM
15:55
Clear
81°F / 27°C 50°F / 10°C 34% 29.95 in
(1014 mb)
Calm - 10SM
15:35
Clear
81°F / 27°C 50°F / 10°C 34% 29.95 in
(1014 mb)
Calm - 10SM
15:15
Clear
81°F / 27°C 50°F / 10°C 34% 29.95 in
(1014 mb)
SW 3.5 mph
(SW 6 kph)
- 10SM
14:55
Clear
81°F / 27°C 52°F / 11°C 37% 29.95 in
(1014 mb)
W 4.6 mph
(W 7 kph)
- 10SM
14:35
Clear
81°F / 27°C 54°F / 12°C 39% 29.95 in
(1014 mb)
W 3.5 mph
(W 6 kph)
- 10SM
14:15
Clear
81°F / 27°C 52°F / 11°C 37% 29.95 in
(1014 mb)
Calm - 10SM
13:55
Clear
81°F / 27°C 52°F / 11°C 37% 29.95 in
(1014 mb)
W 4.6 mph
(W 7 kph)
- 10SM
13:35
Clear
79°F / 26°C 54°F / 12°C 42% 29.95 in
(1014 mb)
NW 3.5 mph
(NW 6 kph)
- 10SM
13:15
Clear
79°F / 26°C 54°F / 12°C 42% 29.95 in
(1014 mb)
NNW 3.5 mph
(NNW 6 kph)
- 10SM
12:55
Clear
79°F / 26°C 54°F / 12°C 42% 29.95 in
(1014 mb)
WNW 4.6 mph
(WNW 7 kph)
- 10SM
12:35
Clear
79°F / 26°C 55°F / 13°C 45% 29.95 in
(1014 mb)
W 4.6 mph
(W 7 kph)
- 10SM
12:15
Clear
79°F / 26°C 54°F / 12°C 42% 29.95 in
(1014 mb)
Calm - 10SM
11:55
Clear
77°F / 25°C 54°F / 12°C 44% 29.95 in
(1014 mb)
Calm - 10SM
11:35
Clear
Hazy
77°F / 25°C 54°F / 12°C 44% 29.95 in
(1014 mb)
N 5.8 mph
(N 9 kph)
- 5SM
11:15
Clear
Hazy
77°F / 25°C 55°F / 13°C 47% 29.95 in
(1014 mb)
NNW 5.8 mph
(NNW 9 kph)
- 5SM
10:55
Clear
77°F / 25°C 55°F / 13°C 47% 29.95 in
(1014 mb)
N 5.8 mph
(N 9 kph)
- 10SM
10:35
Clear
75°F / 24°C 55°F / 13°C 50% 29.95 in
(1014 mb)
NNE 5.8 mph
(NNE 9 kph)
- 10SM
10:15
Clear
75°F / 24°C 54°F / 12°C 47% 29.95 in
(1014 mb)
W 3.5 mph
(W 6 kph)
- 10SM
09:55
Clear
73°F / 23°C 54°F / 12°C 50% 29.95 in
(1014 mb)
N 4.6 mph
(N 7 kph)
- 10SM
09:35
Clear
73°F / 23°C 54°F / 12°C 50% 29.95 in
(1014 mb)
NNW 8.1 mph
(NNW 13 kph)
- 10SM
09:15
Clear
73°F / 23°C 54°F / 12°C 50% 29.95 in
(1014 mb)
N 9.2 mph
(N 15 kph)
- 10SM
08:55
Clear
72°F / 22°C 54°F / 12°C 53% 29.92 in
(1013 mb)
N 10.4 mph
(N 17 kph)
- 10SM
08:35
Clear
72°F / 22°C 55°F / 13°C 57% 29.92 in
(1013 mb)
N 9.2 mph
(N 15 kph)
- 10SM
08:15
Clear
72°F / 22°C 57°F / 14°C 61% 29.92 in
(1013 mb)
N 10.4 mph
(N 17 kph)
- 10SM
07:55
Clear
70°F / 21°C 59°F / 15°C 69% 29.92 in
(1013 mb)
N 6.9 mph
(N 11 kph)
- 10SM
07:35
Clear
68°F / 20°C 61°F / 16°C 78% 29.92 in
(1013 mb)
NNE 8.1 mph
(NNE 13 kph)
- 10SM
07:15
Clear
68°F / 20°C 61°F / 16°C 78% 29.92 in
(1013 mb)
N 5.8 mph
(N 9 kph)
- 10SM
06:55
Clear
66°F / 19°C 61°F / 16°C 83% 29.89 in
(1012 mb)
N 4.6 mph
(N 7 kph)
- 10SM
06:35
Clear
64°F / 18°C 61°F / 16°C 88% 29.89 in
(1012 mb)
Calm - 10SM
06:15
Clear
63°F / 17°C 61°F / 16°C 94% 29.89 in
(1012 mb)
NNW 4.6 mph
(NNW 7 kph)
- 10SM
05:55
Clear
61°F / 16°C 59°F / 15°C 94% 29.89 in
(1012 mb)
Calm - 7SM
05:35
Clear
61°F / 16°C 61°F / 16°C 100% 29.89 in
(1012 mb)
NW 4.6 mph
(NW 7 kph)
- 10SM
05:15
Clear
63°F / 17°C 61°F / 16°C 94% 29.86 in
(1011 mb)
NW 3.5 mph
(NW 6 kph)
- 7SM
04:55
Clear
Fog And Mist
63°F / 17°C 61°F / 16°C 94% 29.86 in
(1011 mb)
SSW 3.5 mph
(SSW 6 kph)
- 2 1/2SM
04:35
Obscured
Fog And Mist
61°F / 16°C 61°F / 16°C 100% 29.83 in
(1010 mb)
Calm - 1SM
04:15
Clear
Fog And Mist
61°F / 16°C 61°F / 16°C 100% 29.83 in
(1010 mb)
W 4.6 mph
(W 7 kph)
- 4SM
03:55
Clear
Fog And Mist
63°F / 17°C 63°F / 17°C 100% 29.83 in
(1010 mb)
SW 3.5 mph
(SW 6 kph)
- 5SM
03:35
Clear
63°F / 17°C 63°F / 17°C 100% 29.8 in
(1009 mb)
SSE 4.6 mph
(SSE 7 kph)
- 7SM
03:15
Clear
64°F / 18°C 63°F / 17°C 94% 29.8 in
(1009 mb)
SW 4.6 mph
(SW 7 kph)
- 10SM
02:55
Partly Cloudy
63°F / 17°C 63°F / 17°C 100% 29.8 in
(1009 mb)
S 3.5 mph
(S 6 kph)
- 7SM
02:35
Partly Cloudy
64°F / 18°C 63°F / 17°C 94% 29.8 in
(1009 mb)
S 3.5 mph
(S 6 kph)
- 10SM
02:15
Partly Cloudy
64°F / 18°C 63°F / 17°C 94% 29.8 in
(1009 mb)
SSE 5.8 mph
(SSE 9 kph)
- 7SM
01:55
Partly Cloudy
64°F / 18°C 63°F / 17°C 94% 29.77 in
(1008 mb)
S 5.8 mph
(S 9 kph)
- 10SM
01:35
Partly Cloudy
64°F / 18°C 63°F / 17°C 94% 29.77 in
(1008 mb)
S 4.6 mph
(S 7 kph)
- 10SM
01:15
Clear
66°F / 19°C 63°F / 17°C 88% 29.77 in
(1008 mb)
S 4.6 mph
(S 7 kph)
- 10SM
00:55
Clear
68°F / 20°C 64°F / 18°C 88% 29.77 in
(1008 mb)
S 6.9 mph
(S 11 kph)
- 10SM
00:35
Clear
68°F / 20°C 64°F / 18°C 88% 29.77 in
(1008 mb)
S 8.1 mph
(S 13 kph)
- 10SM
00:15
Clear
68°F / 20°C 64°F / 18°C 88% 29.77 in
(1008 mb)
S 9.2 mph
(S 15 kph)
- 10SM
Time Weather Temperature Dewpoint Humidity Pressure Winds Precip Visibility


Weather for websites

WeatherForYou.com, LLC is not responsible for any damages or problems caused by this service. Current weather conditions are obtained from the closest station including government and personal stations which may have varying degrees of accuracy. Weather forecasts are derived from the NOAA NDFD. Like all things, this site belongs to Jesus Christ... He just trusts us to maintain it. If you have any questions or comments email webmaster@weatherforyou.com

Copyright © 2016, WeatherForYou.com LLC. All rights reserved.